User: anonymous   Login
Location: Dannhausen
(51.8650°N, 10.1026°E)
Time: 12:30:10
(UTC+00:00)
Language:

FREGAT/IRIS - Orbit

View from above orbital plane
View from above orbital plane
View from above satellite
View from above satellite

Ground track
Ground track

The orbit data is extracted from the following two-line orbital elements,

1 35867U 09049C   20191.17748810  .00017290  00000-0  87620-4 0  9996
2 35867  96.9235 229.7665 0000258 182.4753 248.4978 15.81591002609512
Epoch (UTC): 09 July 2020 04:15:34
Eccentricity: 0.0000258
inclination: 96.9235°
perigee height: 326 km
apogee height: 326 km
right ascension of ascending node: 229.7665°
argument of perigee: 182.4753°
revolutions per day: 15.81591002
mean anomaly at epoch: 248.4978°
orbit number at epoch: 60951

The dashed part of the orbit path shows where the satellite is in the earth's shadow,  

DLR